Weather History for Lovelock, NV

Change the Weather History Date:

Saturday, November 3, 2012

  Actual Average Record
Temperature  
Mean Temperature 45 °F -  
Max Temperature 66 °F 60 °F 75 °F (1950)
Min Temperature 24 °F 26 °F 6 °F (2002)
Degree Days  
Heating Degree Days 20    
Moisture  
Dew Point 26 °F    
Average Humidity 53    
Maximum Humidity 77    
Minimum Humidity 25    
Precipitation  
Precipitation 0.00 in - - ()
Sea Level Pressure  
Sea Level Pressure 30.22 in    
Wind  
Wind Speed 2 mph (ESE)    
Max Wind Speed 6 mph    
Max Gust Speed -    
Visibility 10 miles    
Events      
Averages and records for this station are not official NWS values.
T = Trace of Precipitation, MM = Missing Value Source: NWS Daily Summary

Daily Weather History Graph

Daily Weather History Graph

Search for Another Location

Airport:

Trip Planner

Search our weather history database for the weather conditions in past years. The results will help you decide how hot, cold, wet, or windy it might be!

Date:

Astronomy

Nov. 03, 2012 Rise Set
Actual Time 7:26 AM PDT 5:48 PM PDT
Civil Twilight 6:58 AM PDT 6:17 PM PDT
Nautical Twilight 6:25 AM PDT 6:49 PM PDT
Astronomical Twilight 5:54 AM PDT 7:20 PM PDT
Moon 9:34 PM PDT (11/3) 11:33 AM PDT (11/3)
Length of Visible Light 11h 18m
Length of Day
10h 22m
Waning Gibbous, 79% of the Moon is Illuminated
Nov 3
Waning Gibbous
Nov 6
Last Quarter
Nov 13
New
Nov 20
First Quarter
Nov 28
Full

Hourly Weather History & Observations

Time (PDT) Temp. Windchill Dew Point Humidity Pressure Visibility Wind Dir Wind Speed Gust Speed Precip Events Conditions
12:53 AM 33.1 °F 30.0 °F 24.1 °F 70% 30.14 in 10.0 mi ESE 3.5 mph - N/A   Clear
1:53 AM 30.9 °F - 23.0 °F 72% 30.14 in 10.0 mi Calm Calm - N/A   Clear
2:53 AM 30.0 °F 25.2 °F 21.9 °F 72% 30.15 in 10.0 mi ENE 4.6 mph - N/A   Clear
3:53 AM 28.9 °F 23.9 °F 19.9 °F 69% 30.16 in 10.0 mi East 4.6 mph - N/A   Clear
4:53 AM 30.9 °F 26.2 °F 23.0 °F 72% 30.17 in 10.0 mi WSW 4.6 mph - N/A   Clear
5:53 AM 24.1 °F - 18.0 °F 77% 30.20 in 10.0 mi Calm Calm - N/A   Clear
6:53 AM 24.1 °F 19.7 °F 18.0 °F 77% 30.23 in 10.0 mi East 3.5 mph - N/A   Clear
7:53 AM 27.0 °F - 19.0 °F 72% 30.26 in 10.0 mi Calm Calm - N/A   Clear
8:53 AM 34.0 °F - 24.1 °F 67% 30.28 in 10.0 mi Calm Calm - N/A   Clear
9:53 AM 45.0 °F - 28.9 °F 53% 30.27 in 10.0 mi Calm Calm - N/A   Clear
10:53 AM 52.0 °F - 30.9 °F 45% 30.26 in 10.0 mi Calm Calm - N/A   Clear
11:53 AM 57.9 °F - 30.9 °F 36% 30.24 in 10.0 mi Variable 3.5 mph - N/A   Clear
12:53 PM 61.0 °F - 30.0 °F 31% 30.22 in 10.0 mi Variable 5.8 mph - N/A   Clear
1:53 PM 64.0 °F - 30.0 °F 28% 30.19 in 10.0 mi Variable 3.5 mph - N/A   Clear
2:53 PM 66.0 °F - 28.9 °F 25% 30.19 in 10.0 mi Calm Calm - N/A   Clear
3:53 PM 64.9 °F - 28.9 °F 26% 30.19 in 10.0 mi ESE 4.6 mph - N/A   Clear
4:53 PM 64.0 °F - 28.9 °F 27% 30.19 in 10.0 mi Calm Calm - N/A   Clear
5:53 PM 59.0 °F - 30.9 °F 35% 30.21 in 10.0 mi Calm Calm - N/A   Clear
6:53 PM 55.9 °F - 30.0 °F 37% 30.25 in 10.0 mi Calm Calm - N/A   Clear
7:53 PM 45.0 °F 42.6 °F 28.9 °F 53% 30.28 in 10.0 mi NE 4.6 mph - N/A   Clear
8:53 PM 41.0 °F - 25.0 °F 53% 30.27 in 10.0 mi Calm Calm - N/A   Clear
9:53 PM 35.1 °F 32.2 °F 21.0 °F 57% 30.28 in 10.0 mi South 3.5 mph - N/A   Clear
10:53 PM 37.9 °F - 24.1 °F 57% 30.27 in 10.0 mi Calm Calm - N/A   Clear
11:53 PM 36.0 °F - 24.1 °F 62% 30.27 in 10.0 mi Calm Calm - N/A   Clear